Location: Newark
(43.0000°N, 1.6781°W)
Time: 21:45:14
(UTC+00:00)

Vanguard 1 - Pass Details

Date: 04 December 2021
Orbit: 652 x 3830 km, 34.2° (Epoch: 16 January)

Event Time Altitude Azimuth Distance (km) Brightness Sun altitude
Rises 22:24:44 0° 217° (SW) 6,687 14.3 -61.8°
Enters shadow 22:28:54 10° 211° (SSW) 6,038 14.0 -62.4°
Exits shadow 23:10:21 - 82° (E) 6,861 14.2 -67.2°
Sets 23:13:13 0° 79° (E) 7,310 14.4 -67.4°
